📊 Raw Sensor Data

Showing records 36076 to 36100 of 84,889 total

ID Distance (ft) Battery V Battery A Int Temp (°F) Int Humid (%) Ext Temp (°F) Solar V RSSI SNR Time Stamp
48826 15.6 4.01 7 98 53 91 4.60 -70 8 08/10/2025 07:00 PM
48825 15.6 3.98 34 100 52 92 4.50 -69 8 08/10/2025 06:45 PM
48824 15.6 3.91 0 103 52 94 5.10 -70 8 08/10/2025 06:30 PM
48823 15.6 3.91 0 104 51 95 5.10 -70 8 08/10/2025 06:15 PM
48822 15.6 3.91 0 106 50 96 5.10 -69 8 08/10/2025 06:00 PM
48821 15.5 3.91 0 108 49 98 5.10 -71 8 08/10/2025 05:45 PM
48820 15.6 3.91 0 109 49 97 5.10 -69 8 08/10/2025 05:30 PM
48819 15.6 3.91 0 110 48 100 5.10 -69 8 08/10/2025 05:15 PM
48818 15.6 3.91 0 111 48 100 5.10 -70 8 08/10/2025 05:00 PM
48817 15.6 3.91 0 112 47 101 5.10 -69 8 08/10/2025 04:45 PM
48816 15.6 3.91 0 112 46 102 5.10 -70 9 08/10/2025 04:30 PM
48815 15.6 3.92 0 112 46 101 5.10 -70 8 08/10/2025 04:15 PM
48814 15.6 3.94 0 112 45 102 5.10 -70 9 08/10/2025 04:00 PM
48813 15.6 4.03 0 112 45 101 5.10 -71 8 08/10/2025 03:45 PM
48812 15.6 4.11 0 112 44 102 5.10 -69 8 08/10/2025 03:30 PM
48811 15.6 3.91 0 112 43 102 5.10 -70 8 08/10/2025 03:15 PM
48810 15.6 3.99 0 111 43 102 5.10 -70 8 08/10/2025 03:00 PM
48809 15.5 3.92 0 111 42 101 5.10 -70 8 08/10/2025 02:45 PM
48808 15.5 4.11 0 109 42 100 5.20 -70 8 08/10/2025 02:30 PM
48807 15.5 4.02 0 107 41 99 5.10 -71 7 08/10/2025 02:15 PM
48806 15.5 3.91 0 106 41 97 5.20 -71 8 08/10/2025 02:00 PM
48805 15.5 3.91 0 104 41 96 5.10 -70 8 08/10/2025 01:45 PM
48804 15.5 3.91 0 102 41 96 5.20 -71 8 08/10/2025 01:30 PM
48803 15.5 3.91 0 100 42 94 5.20 -70 8 08/10/2025 01:15 PM
48802 15.5 3.91 0 98 42 92 5.10 -70 7 08/10/2025 01:00 PM